FW2710 Weather Reports


Display with metric or nautical units.
time (UTC)temp
F
wind
direction
speed
MPH
gust
MPH
rain 1hr
in
rain 24hr
in
rain mn
in
humidity
%
barometer
mb
20260831231550 88 0 0.0 0.0 0.00 0.00 0.00 63 1014.8
20260831231028 88 0 0.0 0.0 0.00 0.00 0.00 63 1014.7
20260831230528 88 0 0.0 0.0 0.00 0.00 0.00 62 1014.7
20260831230054 89 0 0.0 0.0 0.00 0.00 0.00 62 1014.7
20260831225525 89 0 0.0 0.0 0.00 0.00 0.00 61 1014.7
20260831225026 89 0 0.0 0.0 0.00 0.00 0.00 61 1014.7
20260831224549 89 0 0.0 0.0 0.00 0.00 0.00 61 1014.7
20260831224024 89 0 0.0 0.0 0.00 0.00 0.00 60 1014.6
20260831223524 89 0 0.0 0.0 0.00 0.00 0.00 60 1014.6
20260831223049 90 0 0.0 0.0 0.00 0.00 0.00 62 1014.6
20260831222526 90 0 0.0 0.0 0.00 0.00 0.00 60 1014.5
20260831222026 90 0 0.0 0.0 0.00 0.00 0.00 61 1014.5
20260831221605 90 0 0.0 0.0 0.00 0.00 0.00 60 1014.4
20260831221026 90 0 0.0 0.0 0.00 0.00 0.00 59 1014.5
20260831220525 90 0 0.0 0.0 0.00 0.00 0.00 59 1014.4
20260831220048 90 0 0.0 0.0 0.00 0.00 0.00 59 1014.4
20260831215526 90 0 0.0 0.0 0.00 0.00 0.00 60 1014.3
20260831215025 90 0 0.0 0.0 0.00 0.00 0.00 60 1014.3
20260831214549 90 0 0.0 0.0 0.00 0.00 0.00 60 1014.4
20260831214023 90 0 0.0 0.0 0.00 0.00 0.00 60 1014.4
20260831213530 90 0 0.0 0.0 0.00 0.00 0.00 60 1014.5
20260831213049 90 0 0.0 0.0 0.00 0.00 0.00 60 1014.4
20260831212523 90 0 0.0 0.0 0.00 0.00 0.00 59 1014.4
20260831212027 90 0 0.0 0.0 0.00 0.00 0.00 61 1014.3
20260831211555 90 0 0.0 0.0 0.00 0.00 0.00 59 1014.3
20260831211026 90 0 0.0 0.0 0.00 0.00 0.00 58 1014.4
20260831210528 90 0 0.0 0.0 0.00 0.00 0.00 58 1014.4
20260831210050 90 0 0.0 0.0 0.00 0.00 0.00 59 1014.4
20260831205524 90 0 0.0 0.0 0.00 0.00 0.00 58 1014.4
20260831205024 90 0 0.0 0.0 0.00 0.00 0.00 59 1014.5
20260831204549 90 0 0.0 0.0 0.00 0.00 0.00 58 1014.6
20260831204024 90 0 0.0 0.0 0.00 0.00 0.00 59 1014.6
20260831203526 91 0 0.0 0.0 0.00 0.00 0.00 58 1014.7
20260831203104 91 0 0.0 0.0 0.00 0.00 0.00 59 1014.7
20260831202523 91 0 0.0 0.0 0.00 0.00 0.00 59 1014.7
20260831202028 91 0 0.0 0.0 0.00 0.00 0.00 60 1014.7
20260831201602 91 0 0.0 0.0 0.00 0.00 0.00 60 1014.8
20260831201029 91 0 0.0 0.0 0.00 0.00 0.00 60 1014.9
20260831200525 91 0 0.0 0.0 0.00 0.00 0.00 60 1015.0
20260831200134 90 0 0.0 0.0 0.00 0.00 0.00 62 1015.0
20260831195526 90 0 0.0 0.0 0.00 0.00 0.00 59 1015.1
20260831195023 90 0 0.0 0.0 0.00 0.00 0.00 60 1015.2
20260831194556 90 0 0.0 0.0 0.00 0.00 0.00 59 1015.2
20260831194025 90 0 0.0 0.0 0.00 0.00 0.00 61 1015.3
20260831193525 90 0 0.0 0.0 0.00 0.00 0.00 61 1015.3
20260831193050 90 0 0.0 0.0 0.00 0.00 0.00 60 1015.3
20260831192526 90 0 0.0 0.0 0.00 0.00 0.00 60 1015.3
20260831192025 90 0 0.0 0.0 0.00 0.00 0.00 59 1015.3
20260831191554 90 0 0.0 0.0 0.00 0.00 0.00 60 1015.4
20260831191026 90 0 0.0 0.0 0.00 0.00 0.00 62 1015.4
20260831190528 90 0 0.0 0.0 0.00 0.00 0.00 60 1015.5
20260831190049 90 0 0.0 0.0 0.00 0.00 0.00 59 1015.5
20260831185525 90 0 0.0 0.0 0.00 0.00 0.00 62 1015.6
20260831185028 90 0 0.0 0.0 0.00 0.00 0.00 60 1015.6
20260831184552 90 0 0.0 0.0 0.00 0.00 0.00 60 1015.7
20260831184025 90 0 0.0 0.0 0.00 0.00 0.00 62 1015.7
20260831183533 90 0 0.0 0.0 0.00 0.00 0.00 61 1015.7
20260831183047 89 0 0.0 0.0 0.00 0.00 0.00 60 1015.8
20260831182525 89 0 0.0 0.0 0.00 0.00 0.00 60 1015.8
20260831182030 89 0 0.0 0.0 0.00 0.00 0.00 62 1015.9
20260831181553 89 0 0.0 0.0 0.00 0.00 0.00 62 1016.0
20260831181028 89 0 0.0 0.0 0.00 0.00 0.00 62 1016.1
20260831180529 88 0 0.0 0.0 0.00 0.00 0.00 62 1016.1
20260831180046 88 0 0.0 0.0 0.00 0.00 0.00 61 1016.3
20260831175527 87 0 0.0 0.0 0.00 0.00 0.00 61 1016.3
20260831175027 87 0 0.0 0.0 0.00 0.00 0.00 59 1016.3
20260831174551 88 0 0.0 0.0 0.00 0.00 0.00 61 1016.3
20260831174026 88 0 0.0 0.0 0.00 0.00 0.00 59 1016.3
20260831173524 88 0 0.0 0.0 0.00 0.00 0.00 60 1016.4
20260831173051 87 0 0.0 0.0 0.00 0.00 0.00 65 1016.4
20260831172524 85 0 0.0 0.0 0.00 0.00 0.00 65 1016.5
20260831172027 85 0 0.0 0.0 0.00 0.00 0.00 60 1016.5
20260831171552 85 0 0.0 0.0 0.00 0.00 0.00 61 1016.6
20260831171023 85 0 0.0 0.0 0.00 0.00 0.00 62 1016.6
20260831170529 85 0 0.0 0.0 0.00 0.00 0.00 62 1016.6
20260831170049 86 0 0.0 0.0 0.00 0.00 0.00 61 1016.6
20260831165527 86 0 0.0 0.0 0.00 0.00 0.00 63 1016.7
20260831165025 86 0 0.0 0.0 0.00 0.00 0.00 62 1016.6
20260831164548 86 0 0.0 0.0 0.00 0.00 0.00 64 1016.6
20260831164025 85 0 0.0 0.0 0.00 0.00 0.00 67 1016.8
20260831163524 84 0 0.0 0.0 0.00 0.00 0.00 63 1016.7
20260831163057 84 0 0.0 0.0 0.00 0.00 0.00 66 1016.7
20260831162528 83 0 0.0 0.0 0.00 0.00 0.00 65 1016.7
20260831162029 83 0 0.0 0.0 0.00 0.00 0.00 66 1016.9
20260831161552 83 0 0.0 0.0 0.00 0.00 0.00 64 1016.8
20260831161028 83 0 0.0 0.0 0.00 0.00 0.00 62 1016.8
20260831160528 83 0 0.0 0.0 0.00 0.00 0.00 64 1017.0
20260831160055 82 0 0.0 0.0 0.00 0.00 0.00 67 1016.9
20260831155530 81 0 0.0 0.0 0.00 0.00 0.00 69 1016.9
20260831155029 80 0 0.0 0.0 0.00 0.00 0.00 70 1016.9
20260831154621 80 0 0.0 0.0 0.00 0.00 0.00 69 1016.8
20260831154030 80 0 0.0 0.0 0.00 0.00 0.00 68 1017.0
20260831153528 80 0 0.0 0.0 0.00 0.00 0.00 67 1016.9
20260831153057 80 0 0.0 0.0 0.00 0.00 0.00 66 1017.0
20260831152526 80 0 0.0 0.0 0.00 0.00 0.00 65 1017.1
20260831152030 80 0 0.0 0.0 0.00 0.00 0.00 69 1017.0
20260831151549 79 0 0.0 0.0 0.00 0.00 0.00 68 1016.8
20260831151026 79 0 0.0 0.0 0.00 0.00 0.00 67 1016.8
20260831150530 79 0 0.0 0.0 0.00 0.00 0.00 67 1016.7
20260831150058 79 0 0.0 0.0 0.00 0.00 0.00 69 1016.8
20260831145525 79 0 0.0 0.0 0.00 0.00 0.00 66 1016.7
20260831145030 79 0 0.0 0.0 0.00 0.00 0.00 66 1016.7
20260831144556 79 0 0.0 0.0 0.00 0.00 0.00 67 1016.6
20260831144028 79 0 0.0 0.0 0.00 0.00 0.00 68 1016.5
20260831143528 78 0 0.0 0.0 0.00 0.00 0.00 67 1016.5
20260831143056 78 0 0.0 0.0 0.00 0.00 0.00 67 1016.6
20260831142526 78 0 0.0 0.0 0.00 0.00 0.00 67 1016.6
20260831142027 78 0 0.0 0.0 0.00 0.00 0.00 68 1016.6
20260831141553 78 0 0.0 0.0 0.00 0.00 0.00 67 1016.6
20260831141026 77 0 0.0 0.0 0.00 0.00 0.00 68 1016.6
20260831140525 77 0 0.0 0.0 0.00 0.00 0.00 69 1016.7
20260831140047 76 0 0.0 0.0 0.00 0.00 0.00 69 1016.6
20260831135526 76 0 0.0 0.0 0.00 0.00 0.00 69 1016.6
20260831135029 76 0 0.0 0.0 0.00 0.00 0.00 70 1016.6
20260831134558 75 0 0.0 0.0 0.00 0.00 0.00 72 1016.6
20260831134026 75 0 0.0 0.0 0.00 0.00 0.00 74 1016.6
20260831133528 74 0 0.0 0.0 0.00 0.00 0.00 73 1016.6
20260831133056 74 0 0.0 0.0 0.00 0.00 0.00 74 1016.5
20260831132531 73 0 0.0 0.0 0.00 0.00 0.00 75 1016.5
20260831132033 73 0 0.0 0.0 0.00 0.00 0.00 74 1016.5
20260831131549 73 0 0.0 0.0 0.00 0.00 0.00 74 1016.5
20260831131027 73 0 0.0 0.0 0.00 0.00 0.00 74 1016.5
20260831130525 73 0 0.0 0.0 0.00 0.00 0.00 74 1016.6
20260831130053 73 0 0.0 0.0 0.00 0.00 0.00 74 1016.5
20260831125528 73 0 0.0 0.0 0.00 0.00 0.00 74 1016.4
20260831125029 73 0 0.0 0.0 0.00 0.00 0.00 74 1016.4
20260831124547 73 0 0.0 0.0 0.00 0.00 0.00 74 1016.4
20260831124025 72 0 0.0 0.0 0.00 0.00 0.00 74 1016.5
20260831123529 72 0 0.0 0.0 0.00 0.00 0.00 75 1016.4
20260831123051 72 0 0.0 0.0 0.00 0.00 0.00 74 1016.4
20260831122527 72 0 0.0 0.0 0.00 0.00 0.00 74 1016.4
20260831122025 72 0 0.0 0.0 0.00 0.00 0.00 74 1016.3
20260831121549 72 0 0.0 0.0 0.00 0.00 0.00 74 1016.3
20260831121028 72 0 0.0 0.0 0.00 0.00 0.00 74 1016.2
20260831120524 72 0 0.0 0.0 0.00 0.00 0.00 73 1016.1
20260831120127 72 0 0.0 0.0 0.00 0.00 0.00 73 1016.0
20260831115528 72 0 0.0 0.0 0.00 0.00 0.00 73 1016.1
20260831115030 72 0 0.0 0.0 0.00 0.00 0.00 72 1016.1
20260831114549 72 0 0.0 0.0 0.00 0.00 0.00 72 1016.1
20260831114026 72 0 0.0 0.0 0.00 0.00 0.00 72 1016.1
20260831113530 73 0 0.0 0.0 0.00 0.00 0.00 72 1015.9
20260831113053 73 0 0.0 0.0 0.00 0.00 0.00 71 1016.0
20260831112527 73 0 0.0 0.0 0.00 0.00 0.00 71 1015.9
20260831112024 73 0 0.0 0.0 0.00 0.00 0.00 71 1016.1
20260831111554 73 0 0.0 0.0 0.00 0.00 0.00 71 1016.0
20260831111027 73 0 0.0 0.0 0.00 0.00 0.00 71 1016.0
20260831110531 73 0 0.0 0.0 0.00 0.00 0.00 71 1016.0
20260831110047 73 0 0.0 0.0 0.00 0.00 0.00 71 1016.0
20260831105529 73 0 0.0 0.0 0.00 0.00 0.00 71 1016.0
20260831105029 73 0 0.0 0.0 0.00 0.00 0.00 70 1015.9
20260831104603 73 0 0.0 0.0 0.00 0.00 0.00 70 1016.0
20260831104027 73 0 0.0 0.0 0.00 0.00 0.00 70 1016.0
20260831103527 73 0 0.0 0.0 0.00 0.00 0.00 71 1016.0
20260831103051 73 0 0.0 0.0 0.00 0.00 0.00 70 1016.0
20260831102528 73 0 0.0 0.0 0.00 0.00 0.00 70 1015.9
20260831102028 73 0 0.0 0.0 0.00 0.00 0.00 71 1015.9
20260831101555 73 0 0.0 0.0 0.00 0.00 0.00 71 1015.8
20260831101028 73 0 0.0 0.0 0.00 0.00 0.00 71 1015.7
20260831100525 73 0 0.0 0.0 0.00 0.00 0.00 71 1015.7
20260831100050 73 0 0.0 0.0 0.00 0.00 0.00 71 1015.8
20260831095528 72 0 0.0 0.0 0.00 0.00 0.00 72 1015.7
20260831095027 72 0 0.0 0.0 0.00 0.00 0.00 72 1015.8
20260831094553 72 0 0.0 0.0 0.00 0.00 0.00 72 1015.8
20260831094028 72 0 0.0 0.0 0.00 0.00 0.00 73 1015.8
20260831093525 72 0 0.0 0.0 0.00 0.00 0.00 73 1015.7
20260831093057 72 0 0.0 0.0 0.00 0.00 0.00 73 1015.7
20260831092529 72 0 0.0 0.0 0.00 0.00 0.00 73 1015.8
20260831092025 72 0 0.0 0.0 0.00 0.00 0.00 73 1015.7
20260831091549 72 0 0.0 0.0 0.00 0.00 0.00 73 1015.9
20260831091027 73 0 0.0 0.0 0.00 0.00 0.00 73 1015.8
20260831090531 73 0 0.0 0.0 0.00 0.00 0.00 73 1015.9
20260831085524 73 0 0.0 0.0 0.00 0.00 0.00 73 1016.0
20260831085025 73 0 0.0 0.0 0.00 0.00 0.00 73 1015.9
20260831084556 73 0 0.0 0.0 0.00 0.00 0.00 72 1015.9
20260831084027 73 0 0.0 0.0 0.00 0.00 0.00 72 1015.8
20260831083527 73 0 0.0 0.0 0.00 0.00 0.00 72 1015.7
20260831083048 73 0 0.0 0.0 0.00 0.00 0.00 72 1015.7
20260831082527 73 0 0.0 0.0 0.00 0.00 0.00 72 1015.7
20260831082026 73 0 0.0 0.0 0.00 0.00 0.00 72 1015.7
20260831081550 73 0 0.0 0.0 0.00 0.00 0.00 72 1015.6
20260831081025 73 0 0.0 0.0 0.00 0.00 0.00 72 1015.6
20260831080525 73 0 0.0 0.0 0.00 0.00 0.00 72 1015.6
20260831080049 73 0 0.0 0.0 0.00 0.00 0.00 72 1015.6
20260831075524 73 0 0.0 0.0 0.00 0.00 0.00 72 1015.6
20260831075027 73 0 0.0 0.0 0.00 0.00 0.00 73 1015.6
20260831074556 73 0 0.0 0.0 0.00 0.00 0.00 72 1015.6
20260831074028 73 0 0.0 0.0 0.00 0.00 0.00 73 1015.6
20260831073528 73 0 0.0 0.0 0.00 0.00 0.00 73 1015.6
20260831073051 73 0 0.0 0.0 0.00 0.00 0.00 73 1015.6
20260831072525 73 0 0.0 0.0 0.00 0.00 0.00 72 1015.8
20260831072025 73 0 0.0 0.0 0.00 0.00 0.00 72 1015.7
20260831071548 73 0 0.0 0.0 0.00 0.00 0.00 72 1015.8
20260831071026 73 0 0.0 0.0 0.00 0.00 0.00 72 1015.8
20260831070528 73 0 0.0 0.0 0.00 0.00 0.00 71 1015.8
20260831070055 73 0 0.0 0.0 0.00 0.00 0.00 71 1015.9
20260831065531 73 0 0.0 0.0 0.00 0.00 0.00 72 1016.0
20260831065029 72 0 0.0 0.0 0.00 0.00 0.00 72 1016.0
20260831064557 72 0 0.0 0.0 0.00 0.00 0.00 73 1016.1
20260831064031 72 0 0.0 0.0 0.00 0.00 0.00 73 1016.2
20260831063527 72 0 0.0 0.0 0.00 0.00 0.00 73 1016.2
20260831063053 72 0 0.0 0.0 0.00 0.00 0.00 74 1016.2
20260831062526 72 0 0.0 0.0 0.00 0.00 0.00 74 1016.3
20260831062025 72 0 0.0 0.0 0.00 0.00 0.00 74 1016.4
20260831061555 72 0 0.0 0.0 0.00 0.00 0.00 75 1016.3
20260831061028 72 0 0.0 0.0 0.00 0.00 0.00 75 1016.4
20260831060527 72 0 0.0 0.0 0.00 0.00 0.00 76 1016.2
20260831060105 72 0 0.0 0.0 0.00 0.00 0.00 76 1016.2
20260831055524 72 0 0.0 0.0 0.00 0.00 0.00 76 1016.1
20260831055026 72 0 0.0 0.0 0.00 0.00 0.00 75 1016.1
20260831054551 72 0 0.0 0.0 0.00 0.00 0.00 75 1016.1
20260831054036 72 0 0.0 0.0 0.00 0.00 0.00 75 1016.2
20260831053528 72 0 0.0 0.0 0.00 0.00 0.00 75 1016.2
20260831053138 72 0 0.0 0.0 0.00 0.00 0.00 76 1016.2
20260831052526 72 0 0.0 0.0 0.00 0.00 0.00 76 1016.3
20260831052024 72 0 0.0 0.0 0.00 0.00 0.00 76 1016.3
20260831051557 72 0 0.0 0.0 0.00 0.00 0.00 76 1016.3
20260831051027 72 0 0.0 0.0 0.00 0.00 0.00 77 1016.4
20260831050527 72 0 0.0 0.0 0.00 0.00 0.00 77 1016.4
20260831050056 72 0 0.0 0.0 0.00 0.00 0.00 78 1016.4
20260831045527 72 0 0.0 0.0 0.00 0.00 0.00 78 1016.4
20260831045027 72 0 0.0 0.0 0.00 0.00 0.00 78 1016.3
20260831044549 72 0 0.0 0.0 0.00 0.00 0.00 78 1016.4
20260831044027 72 0 0.0 0.0 0.00 0.00 0.00 78 1016.4
20260831043527 72 0 0.0 0.0 0.00 0.00 0.00 79 1016.4
20260831043052 72 0 0.0 0.0 0.00 0.00 0.00 79 1016.5
20260831042528 72 0 0.0 0.0 0.00 0.00 0.00 80 1016.5
20260831042026 72 0 0.0 0.0 0.00 0.00 0.00 80 1016.5
20260831041549 72 0 0.0 0.0 0.00 0.00 0.00 81 1016.4
20260831041026 72 0 0.0 0.0 0.00 0.00 0.00 82 1016.5
20260831040525 72 0 0.0 0.0 0.00 0.00 0.00 82 1016.6
20260831040053 71 0 0.0 0.0 0.00 0.00 0.00 83 1016.6
20260831035525 71 0 0.0 0.0 0.00 0.00 0.00 84 1016.5
20260831035025 71 0 0.0 0.0 0.00 0.00 0.00 84 1016.4
20260831034552 71 0 0.0 0.0 0.00 0.00 0.00 85 1016.5
20260831034023 71 0 0.0 0.0 0.00 0.00 0.00 85 1016.5
20260831033524 71 0 0.0 0.0 0.00 0.00 0.00 86 1016.5
20260831033105 71 0 0.0 0.0 0.00 0.00 0.00 86 1016.4
20260831032528 71 0 0.0 0.0 0.00 0.00 0.00 86 1016.5
20260831032027 72 0 0.0 0.0 0.00 0.00 0.00 85 1016.4
20260831031553 72 0 0.0 0.0 0.00 0.00 0.00 85 1016.6
20260831031029 72 0 0.0 0.0 0.00 0.00 0.00 85 1016.6
20260831030527 72 0 0.0 0.0 0.00 0.00 0.00 85 1016.7
20260831030050 72 0 0.0 0.0 0.00 0.00 0.00 85 1016.7
20260831025525 72 0 0.0 0.0 0.00 0.00 0.00 84 1016.6
20260831025024 73 0 0.0 0.0 0.00 0.00 0.00 84 1016.6
20260831024548 73 0 0.0 0.0 0.00 0.00 0.00 84 1016.5
20260831024026 73 0 0.0 0.0 0.00 0.00 0.00 84 1016.6
20260831023525 73 0 0.0 0.0 0.00 0.00 0.00 84 1016.8
20260831023047 73 0 0.0 0.0 0.00 0.00 0.00 84 1016.8
20260831022523 73 0 0.0 0.0 0.00 0.00 0.00 84 1016.8
20260831022024 73 0 0.0 0.0 0.00 0.00 0.00 84 1016.9
20260831021553 74 0 0.0 0.0 0.00 0.00 0.00 84 1016.8
20260831021030 74 0 0.0 0.0 0.00 0.00 0.00 83 1016.8
20260831020531 74 0 0.0 0.0 0.00 0.00 0.00 83 1016.8
20260831020107 74 0 0.0 0.0 0.00 0.00 0.00 83 1016.6
20260831015526 74 0 0.0 0.0 0.00 0.00 0.00 83 1016.4
20260831015024 75 0 0.0 0.0 0.00 0.00 0.00 82 1016.5
20260831014550 75 0 0.0 0.0 0.00 0.00 0.00 83 1016.5
20260831014023 75 0 0.0 0.0 0.00 0.00 0.00 83 1016.5
20260831013525 75 0 0.0 0.0 0.00 0.00 0.00 83 1016.5
20260831013053 76 0 0.0 0.0 0.00 0.00 0.00 83 1016.4
20260831012527 76 0 0.0 0.0 0.00 0.00 0.00 83 1016.3
20260831012023 76 0 0.0 0.0 0.00 0.00 0.00 82 1016.4
20260831011548 76 0 0.0 0.0 0.00 0.00 0.00 82 1016.4
20260831011026 76 0 0.0 0.0 0.00 0.00 0.00 82 1016.5
20260831010526 76 0 0.0 0.0 0.00 0.00 0.00 82 1016.3
20260831010051 76 0 0.0 0.0 0.00 0.00 0.00 82 1016.3
20260831005525 76 0 0.0 0.0 0.00 0.00 0.00 82 1016.1
20260831005157 77 0 0.0 0.0 0.00 0.00 0.00 81 1016.0
20260831004553 77 0 0.0 0.0 0.00 0.00 0.00 81 1016.0
20260831004024 77 0 0.0 0.0 0.00 0.00 0.00 80 1015.7
20260831003523 78 0 0.0 0.0 0.00 0.00 0.00 78 1015.7
20260831003053 78 0 0.0 0.0 0.00 0.00 0.00 75 1015.8
20260831002524 79 0 0.0 0.0 0.00 0.00 0.00 75 1015.9
20260831002024 80 0 0.0 0.0 0.00 0.00 0.00 72 1016.1
20260831001548 80 0 0.0 0.0 0.00 0.00 0.00 72 1016.2
20260831001030 80 0 0.0 0.0 0.00 0.00 0.00 70 1016.3
20260831000524 81 0 0.0 0.0 0.00 0.00 0.00 69 1016.2
20260831000049 81 0 0.0 0.0 0.00 0.00 0.00 66 1016.3
20260830235528 81 0 0.0 0.0 0.00 0.00 0.00 67 1016.3
20260830235030 82 0 0.0 0.0 0.00 0.00 0.00 69 1016.3
20260830234544 82 0 0.0 0.0 0.00 0.00 0.00 69 1016.3
20260830234024 83 0 0.0 0.0 0.00 0.00 0.00 65 1016.3
20260830233527 83 0 0.0 0.0 0.00 0.00 0.00 66 1016.4
20260830233051 83 0 0.0 0.0 0.00 0.00 0.00 66 1016.5
20260830232527 84 0 0.0 0.0 0.00 0.00 0.00 67 1016.6
20260830232026 84 0 0.0 0.0 0.00 0.00 0.00 67 1016.6